Погода в Сызрани

Погода в Сызрани : погода сейчас, прогноз погоды и архив. Всё, что Вы хотите узнать о погоде в Сызрани!

Хотите узнать прогноз погоды в Сызрани? Тогда Вам сюда: Погода в Сызрани

Поиск расширенной информации на нашем сайте:

Полезная информация: Актуальная информация горящие туры в Турцию, цены на путевки в Турцию здесь. - Poisk-toura.com

Другие новости

Новости СМИ2

Главная страница сайта

Новости сайта

03.07.2017

Напоминаем, что на нашем специализированном сайте Метеоцентр.Азия вы можете получить высокодетализированные автоматические прогнозы погоды по пунктам России, СНГ и мира в авиационном формате (включающие направление и скорость ветра, видимость, явления погоды, количество и форму облачности, нижнюю и верхнюю границу облачности).

Рекомендуем: Оплата тура онлайн купить тур онлайн. - Guru-tour.ru

Погода в Сызрани - сегодня

Время (UTC), дата Ветер
(°,м/с) 
Видим.   Явления Облачность Т
(°С)
Тd
(°С)
f(%) Тe
(°С)
Pmin
(гПа)
dP
(гПа)
Po
(мм)
O2
(г/м3)
Тmin Tmax R s Состояние
почвы
00 14.08.18 280 (З) 20000 м    ясно 
+16.4 +9.5 64 +19  1010.2  0.8  749  283           
03 14.08.18 270 (З) 20000 м    9/9 900 м кучево-дожд., средняя 
[Cb calv|Ac trans]
+16.9 +9.3 61 +18  1011.1  0.9  749  283  +14.4        сухая 
06 14.08.18 300 (СЗ) 20000 м    9/5 1000 м кучево-дожд., средняя, верхняя 
[Cb calv|Ac trans|Ci fib]
+21.3 +9.8 48 +22  1011.7  0.8  750  279           
09 14.08.18 330 (СЗ) 20000 м    8/3 1000 м кучево-дожд., средняя, верхняя 
[Cb calv|Ac trans|Ci fib]
+24.1 +6.9 33 +24  1011.8  0.2  750  277           
18 14.08.18 300 (СЗ) 21000 м    ясно 
+17.5 +6.8 49 +18  1015.1  752  284           
21 14.08.18 300 (СЗ) 20000 м    ясно 
+13.9 +7.4 65 +15  1016.3  753  287           
00 15.08.18 290 (З) 20000 м    ясно 
+12.7 +6.9 68 +13  1017.5  1.1  754  289           
06 15.08.18 240 (ЮЗ) 20000 м    3/0 верхняя 
[Ci fib]
+22.6 +8 39 +23  1019  0.6  755  280           
09 15.08.18 240 (ЮЗ) 2{11}  20000 м    3/3 1000 м верхняя 
[Cu hum|Ci fib]
+25.3 +5 27 +25  1018.6  -0.3  755  278           
12 15.08.18 230 (ЮЗ) 20000 м    3/1 1000 м верхняя 
[Cu hum|Ci fib]
+26.2 +4.3 24 +26  1017.7  -0.9  754  277           
18 15.08.18 230 (ЮЗ) 20000 м    3/0 верхняя 
[Ci fib]
+19.9 +7 43 +21  1017.5  0.1  754  282           
21 15.08.18 260 (З) 20000 м    1/0 верхняя 
[Ci fib]
+13.5 +8.2 70 +15  1018  0.2  754  288           
00 16.08.18 270 (З) 21000 м    ясно 
+13.3 +8.5 73 +15  1017.6  -0.4  754  288           
03 16.08.18 250 (З) 20000 м    4/4 600 м 
[Sc]
+16.7 +9.2 61 +18  1017.5  0.1  754  285  +12.1        сухая 
06 16.08.18 230 (ЮЗ) 20000 м    1/0 верхняя 
[Ci fib]
+25 +8.5 35 +25  1016.6  -0.6  753  277           
09 16.08.18 230 (ЮЗ) 20000 м    3/1 1000 м верхняя 
[Cu hum|Ci fib]
+29.4 +8.7 27 +29  1015.2  -1.2  753  272           
12 16.08.18 230 (ЮЗ) 20000 м    5/3 1000 м средняя, верхняя 
[Cu med, cong|Ac cast|Ci fib]
+30.8 +9.8 27 +32  1013.8  -1.3  752  270           
15 16.08.18 280 (З) 20000 м  в посл. час ливневой дождь  5/3 1000 м кучево-дожд., средняя, верхняя 
[Cb calv|Ac cast|Ci fib]
+28 +10.9 34 +30  1013.1  -0.8  751  273    +31.2  0.0     
18 16.08.18 340 (С) 22000 м    1/0 верхняя 
[Ci fib]
+24.4 +12.2 46 +29  1014.7  1.4  752  276           
21 16.08.18 тихо ()   19000 м    ясно 
+18.7 +13.7 73 +25  1015.4  0.4  752  281           
00 17.08.18 320 (СЗ) 20000 м    1/0 верхняя 
[Ci fib]
+17.5 +13.9 79 +26  1015.7  0.3  753  282           
03 17.08.18 010 (С) 20000 м    8/0 средняя, верхняя 
[Ac trans|Ci fib]
+18.5 +15.1 81 +28  1016.7  753  281  +16.9        сухая 
06 17.08.18 020 (С) 20000 м    10/10 930 м кучево-дожд. 
[Cb calv]
+19.2 +13.7 70 +26  1018.1  1.4  754  281           
18 17.08.18 350 (С) 20000 м    3/0 верхняя 
[Ci fib]
+13.3 +8.7 74 +15  1019.4  0.7  755  289           
21 17.08.18 350 (С) 20000 м    ясно 
+10.6 +7.1 79 +11  1020.1  0.6  756  292           
Время (UTC), дата Ветер
(°,м/с) 
Видим.   Явления Облачность Т
(°С)
Тd
(°С)
f(%) Тe
(°С)
Pmin
(гПа)
dP
(гПа)
Po
(мм)
O2
(г/м3)
Тmin Tmax R s Состояние
почвы

Для получения пояснительной информации подведите курсор к названию столбца.

ПОГОДА в Сызрани - архив

Всё, что Вы хотите узнать о погоде в Сызрани - удобно и подробно!

Выберите нужную дату (начиная с 1 января 2015* года) и нажмите кнопку "Найти".
Будут отображены архивные сводки погоды по пункту Сызрань, начиная с указанной даты.


Отображать данные в формате CSV (для использования в таблицах Excel)


Внимание! Наш архив погоды предназначен исключительно для личного некоммерческого использования в познавательных целях. Если Вам необходимы официальные справки о состоянии погоды (для производственных, юридических, коммерческих и т.п. целей), обращайтесь в органы Росгидромета.

*Примечание: данная дата относится к архиву по метеостанциям СССР (Россия, СНГ, Балтия).
Архив по метеостанциям Зарубежной Европы и Азии (кроме Китая) хранится 10 дней, по другим регионам земного шара (Китай, Африка, Америка, Австралия, Океания) - 1 день.

Сызрань - район местоположения метеостанции


Название, широта, долгота, высота метеостанции:
Сызрань 53.2°ш. 48.4°д. 103 м над ур. моря [Российская Федерация]

Дополнительная информация

В oтличие oт бoльшинства пoгoдных сайтoв мы публикуем пoдрoбную метеoинфoрмацию в детальнoм прoфессиoнальнoм фoрмате.

Характеристики температуры и влажнoсти вoздуха измеряются на высoте 2 м в тени вдали oт зданий и деревьев.
Скoрoсть ветра измеряется на высoте 10 м (на урoвне рoста челoвека скoрoсть ветра ниже в 1.5-2 раза). Если метеoстанция нахoдится в гoрoде или в лесу, тo скoрoсть ветра занижена на 2-4 м/с пo сравнению с oткрытым местoм. Скoрoсть ветра над акватoриями крупных рек и oзёр, а также на вершинах хoлмoв на 2-5 м/с выше, чем в oбычных услoвиях.
Атмoсфернoе давление в разных тoчках местнoсти мoжет значительнo oтличаться oт давления на метеoстанции, в зависимoсти oт услoвий рельефа (при пoдъёме на 10 м давление пoнижается примернo на 1 мм рт.ст.).